World > North America > United States > Oregon   City of Portland, OR
Hourly regional weather for Portland, OregonPortland, Oregon Regional Hourly Weather

Portland, Oregon Regional Weather

regional weather portland, orHOURLY REGIONAL WEATHER FOR PORTLAND, OR
Lat: 45.52N, Lon: 122.67W 
Web Search

Helpful Tip: You can add this page to Bookmarks by pressing the Ctrl key & d key at the same time. Mac users press command & d.

Feedback


°F Click to change Portland hourly weather to Imperial units.Click to change Portland hourly weather to Metric units. °C
Portland Weather Map
UTC Time: 10/27/2021, 18:40
Your Time:

Portland, OR Regional Weather

Expires:202110271800;;866850
ASUS46 KPQR 271710
RWROR 

OREGON REGIONAL WEATHER ROUNDUP
NATIONAL WEATHER SERVICE PORTLAND OR
1000 AM PDT WED OCT 27 2021

NOTE: "FAIR" INDICATES FEW OR NO CLOUDS BELOW 12,000 FEET WITH
NO SIGNIFICANT WEATHER AND/OR OBSTRUCTIONS TO VISIBILITY.


ORZ001>013-271800-
NORTHWEST OREGON

  
CITY           SKY/WX    TMP DP  RH WIND       PRES   REMARKS
ASTORIA        PTSUNNY   52  49  89 CALM      30.24R                  
TILLAMOOK      CLOUDY    55  52  88 CALM      30.29R FOG              
NEWPORT        CLOUDY    54  52  94 S8G16     30.32R FOG              
FLORENCE       FAIR      55  55 100 SE5       30.31S                  
PORTLAND       PTSUNNY   55  49  80 S8        30.28R                  
VANCOUVER WA   PTSUNNY   54  49  83 S3        30.28R                  
SCAPPOOSE      PTSUNNY   52  50  93 CALM      30.27R                  
HILLSBORO      PTSUNNY   53  49  86 S5        30.27R                  
AURORA         PTSUNNY   53  51  93 S6        30.29S                  
MCMINNVILLE    PTSUNNY   53  48  83 SW8       30.27R                  
SALEM          PTSUNNY   55  50  83 S8        30.28R                  
CORVALLIS      PTSUNNY   52  50  93 SE5       30.32R                  
EUGENE         PTSUNNY   55  50  83 SW7       30.31R                  
CRESWELL       SUNNY     52  52 100 S5        30.32R                  
$$


SKY/WX - Weather  TMP - Temperature  DP - Dew Point  RH - Relative Humidity
WIND - Wind Direction/Speed PRES - Barometric Pressure VSB - Visibility
WCI - Wind Chill Index E13G22 Wind - East Wind 13 mph/Gusts of 22 mph